Tracking 19827 objects as of 21-Aug-2019
HD Live streaming from Space Station
objects crossing your sky now

TITAN 3C TRANSTAGE DEB

Track TITAN 3C TRANSTAGE DEB now!
10-day predictions


NORAD ID: 26526
Int'l Code: 1965-108AM
Perigee: 564.0 km
Apogee: 26,779.6 km
Inclination: 26.9 °
Period: 470.7 minutes
Semi major axis: 20042 km
RCS: 0.0834 m2 (small)
Launch date: December 21, 1965
Source: United States (US)
Launch site: AIR FORCE EASTERN TEST RANGE (AFETR)

Note: This is SATELLITE DEBRIS
aabbcc
Your satellite tracking list
Your tracking list is empty




NASA's NSSDC Master Catalog

Two Line Element Set (TLE):
1 26526U 65108AM  19231.97023365  .00000357  00000-0  22733-2 0  9996
2 26526  26.9313 134.0216 6539905 121.3404 356.2685  3.05959829215728
Source of the keplerian elements: AFSPC